Tracking 31027 objects as of 19-Jul-2025
HD Live streaming from Space Station
objects crossing your sky now

STARLINK-30187

Track STARLINK-30187 now!
10-day predictions
STARLINK-30187 is classified as:


NORAD ID: 57473
Int'l Code: 2023-107S
Perigee: 565.5 km
Apogee: 566.9 km
Inclination: 43.0 °
Period: 95.8 minutes
Semi major axis: 6937 km
RCS: Unknown
Launch date: July 28, 2023
Source: (TBD)
Launch site: AIR FORCE EASTERN TEST RANGE (AFETR)
Your satellite tracking list
FENGYUN 1C DEB
Track 1 satellite(s)




NASA's NSSDC Master Catalog

Two Line Element Set (TLE):
1 57473U 23107S   25199.33407924 -.00000194  00000-0  67445-6 0  9994
2 57473  43.0015 172.0878 0001034 287.1392  72.9337 15.02532325109867
Source of the keplerian elements: AFSPC